�������l�o���
Date,Time,MP-1(��Sv/h),MP-2(��Sv/h),MP-3(��Sv/h),MP-4(��Sv/h),MP-5(��Sv/h),MP-6(��Sv/h),MP-7(��Sv/h),MP-8(��Sv/h),����,����(m/s),���J
2020/09/23,00:00,0.672,0.962,0.612,1.183,0.853,0.387,0.673,0.636,�k�k��,6.2,��
2020/09/23,00:10,0.671,0.960,0.613,1.180,0.850,0.387,0.673,0.634,�k�k��,6.3,��
2020/09/23,00:20,0.670,0.959,0.612,1.180,0.852,0.388,0.675,0.634,�k�k��,6.2,��
2020/09/23,00:30,0.672,0.960,0.611,1.181,0.851,0.386,0.673,0.636,�k�k��,6.2,��
2020/09/23,00:40,0.673,0.960,0.612,1.179,0.850,0.385,0.673,0.635,�k�k��,5.6,�L
2020/09/23,00:50,0.672,0.962,0.610,1.179,0.849,0.385,0.675,0.635,�k,5.6,�L
2020/09/23,01:00,0.673,0.959,0.613,1.180,0.851,0.386,0.674,0.636,�k�k��,4.8,�L
2020/09/23,01:10,0.674,0.960,0.614,1.181,0.850,0.386,0.673,0.634,�k,5.8,�L
2020/09/23,01:20,0.674,0.960,0.613,1.182,0.852,0.387,0.674,0.635,�k�k��,4.2,�L
2020/09/23,01:30,0.672,0.961,0.613,1.180,0.851,0.386,0.672,0.634,�k�k��,4.6,�L
2020/09/23,01:40,0.672,0.958,0.611,1.180,0.851,0.386,0.674,0.635,�k�k��,4.7,�L
2020/09/23,01:50,0.671,0.959,0.612,1.181,0.850,0.387,0.671,0.633,�k�k��,4.1,�L
2020/09/23,02:00,0.672,0.957,0.612,1.180,0.849,0.387,0.671,0.633,�k�k��,3.7,�L
2020/09/23,02:10,0.669,0.956,0.612,1.181,0.847,0.386,0.673,0.633,�k,2.6,�L
2020/09/23,02:20,0.669,0.955,0.610,1.178,0.846,0.387,0.672,0.631,�k�k��,3.2,�L
2020/09/23,02:30,0.667,0.947,0.608,1.179,0.843,0.384,0.672,0.630,�k�k��,5.1,�L
2020/09/23,02:40,0.668,0.949,0.610,1.175,0.842,0.385,0.671,0.631,�k��,6.3,�L
2020/09/23,02:50,0.664,0.945,0.609,1.172,0.840,0.385,0.670,0.631,�k�k��,5.9,�L
2020/09/23,03:00,0.664,0.941,0.605,1.172,0.836,0.385,0.669,0.631,�k��,5.6,�L
2020/09/23,03:10,0.663,0.939,0.603,1.170,0.832,0.385,0.668,0.631,�k��,5.9,�L
2020/09/23,03:20,0.662,0.935,0.603,1.167,0.832,0.385,0.667,0.628,�k��,6.0,�L
2020/09/23,03:30,0.662,0.933,0.602,1.163,0.830,0.383,0.668,0.628,���k��,5.8,�L
2020/09/23,03:40,0.658,0.928,0.598,1.162,0.827,0.383,0.668,0.627,�쓌,3.4,�L
2020/09/23,03:50,0.659,0.927,0.599,1.158,0.825,0.381,0.667,0.627,�쓌,4.2,�L
2020/09/23,04:00,0.657,0.923,0.596,1.154,0.826,0.382,0.665,0.627,�쓌,3.8,�L
2020/09/23,04:10,0.656,0.926,0.597,1.157,0.824,0.384,0.666,0.627,�쓌,3.2,�L
2020/09/23,04:20,0.659,0.928,0.597,1.154,0.824,0.380,0.667,0.627,���쓌,3.9,�L
2020/09/23,04:30,0.658,0.930,0.598,1.154,0.824,0.383,0.666,0.627,�쓌,3.1,�L
2020/09/23,04:40,0.655,0.924,0.595,1.151,0.823,0.382,0.665,0.627,�쓌,1.2,�L
2020/09/23,04:50,0.655,0.925,0.596,1.151,0.820,0.381,0.666,0.626,���쓌,3.6,�L
2020/09/23,05:00,0.657,0.925,0.597,1.150,0.822,0.381,0.664,0.627,��,4.1,�L
2020/09/23,05:10,0.656,0.926,0.596,1.152,0.823,0.382,0.665,0.626,��,3.8,�L
2020/09/23,05:20,0.656,0.926,0.597,1.153,0.823,0.381,0.665,0.625,��,6.3,�L
2020/09/23,05:30,0.658,0.927,0.599,1.152,0.822,0.380,0.667,0.626,���쓌,4.9,�L
2020/09/23,05:40,0.657,0.928,0.597,1.151,0.822,0.381,0.666,0.627,���쓌,3.0,�L
2020/09/23,05:50,0.658,0.927,0.596,1.150,0.824,0.381,0.666,0.626,��,2.5,�L
2020/09/23,06:00,0.654,0.926,0.597,1.150,0.824,0.382,0.665,0.626,���k��,2.3,�L
2020/09/23,06:10,0.654,0.926,0.597,1.152,0.823,0.380,0.665,0.626,�k�k��,3.0,�L
2020/09/23,06:20,0.651,0.922,0.595,1.147,0.823,0.381,0.666,0.627,�k�k��,3.8,�L
2020/09/23,06:30,0.651,0.923,0.594,1.144,0.823,0.381,0.666,0.629,�k,4.0,�L
2020/09/23,06:40,0.650,0.920,0.596,1.146,0.825,0.382,0.666,0.628,�k�k��,3.6,�L
2020/09/23,06:50,0.653,0.922,0.592,1.144,0.824,0.381,0.666,0.628,�k�k��,5.5,�L
2020/09/23,07:00,0.653,0.923,0.594,1.147,0.824,0.379,0.667,0.628,�k�k��,5.9,�L
2020/09/23,07:10,0.651,0.923,0.596,1.145,0.825,0.381,0.665,0.627,�k,5.1,��
2020/09/23,07:20,0.652,0.924,0.594,1.146,0.824,0.380,0.667,0.627,�k�k��,5.1,��
2020/09/23,07:30,0.653,0.926,0.596,1.147,0.825,0.381,0.667,0.628,�k�k��,5.1,��
2020/09/23,07:40,0.653,0.923,0.596,1.146,0.825,0.382,0.665,0.628,�k,5.3,�L
2020/09/23,07:50,0.655,0.925,0.594,1.147,0.826,0.380,0.667,0.627,�k,4.7,�L
2020/09/23,08:00,0.653,0.927,0.595,1.148,0.825,0.380,0.666,0.626,�k,4.6,�L
2020/09/23,08:10,0.654,0.923,0.595,1.148,0.824,0.380,0.666,0.628,�k,4.5,�L
2020/09/23,08:20,0.654,0.925,0.595,1.147,0.826,0.380,0.667,0.625,�k�k��,5.1,��
2020/09/23,08:30,0.653,0.922,0.596,1.148,0.826,0.380,0.666,0.627,�k�k��,5.1,��
2020/09/23,08:40,0.653,0.925,0.594,1.150,0.825,0.380,0.667,0.629,�k�k��,4.6,��
2020/09/23,08:50,0.654,0.926,0.596,1.148,0.826,0.379,0.668,0.629,�k�k��,4.8,��
2020/09/23,09:00,0.654,0.927,0.597,1.148,0.826,0.380,0.667,0.629,�k�k��,4.7,��
2020/09/23,09:10,0.655,0.926,0.596,1.149,0.826,0.380,0.668,0.628,�k�k��,4.8,��
2020/09/23,09:20,0.657,0.924,0.592,1.151,0.828,0.382,0.667,0.628,�k�k��,5.2,��
2020/09/23,09:30,0.657,0.927,0.589,1.150,0.827,0.381,0.668,0.628,�k�k��,4.2,��
2020/09/23,09:40,0.655,0.929,0.590,1.150,0.826,0.381,0.668,0.627,�k�k��,4.3,��
2020/09/23,09:50,0.655,0.926,0.596,1.149,0.826,0.381,0.668,0.627,�k�k��,4.9,��
2020/09/23,10:00,0.656,0.929,0.596,1.150,0.828,0.382,0.668,0.627,�k�k��,5.0,��
2020/09/23,10:10,0.656,0.929,0.596,1.149,0.826,0.382,0.668,0.628,�k,5.4,��
2020/09/23,10:20,0.656,0.929,0.597,1.153,0.826,0.380,0.667,0.629,�k,5.4,��
2020/09/23,10:30,0.656,0.931,0.598,1.152,0.828,0.382,0.667,0.629,�k,4.8,��
2020/09/23,10:40,0.656,0.929,0.598,1.148,0.828,0.381,0.668,0.629,�k�k��,4.5,��
2020/09/23,10:50,0.656,0.932,0.597,1.150,0.830,0.383,0.668,0.629,�k�k��,5.2,��
2020/09/23,11:00,0.659,0.932,0.598,1.152,0.829,0.381,0.669,0.629,�k�k��,5.5,��
2020/09/23,11:10,0.658,0.933,0.599,1.151,0.831,0.383,0.668,0.629,�k�k��,5.9,��
2020/09/23,11:20,0.659,0.936,0.599,1.151,0.830,0.380,0.671,0.628,�k�k��,6.6,��
2020/09/23,11:30,0.659,0.933,0.601,1.154,0.830,0.382,0.670,0.629,�k�k��,5.7,��
2020/09/23,11:40,0.659,0.933,0.600,1.154,0.832,0.383,0.670,0.628,�k�k��,6.8,��
2020/09/23,11:50,0.659,0.936,0.600,1.154,0.830,0.383,0.670,0.628,�k�k��,5.5,��
2020/09/23,12:00,0.659,0.934,0.602,1.155,0.832,0.383,0.669,0.629,�k�k��,6.8,��
2020/09/23,12:10,0.658,0.938,0.600,1.151,0.834,0.383,0.669,0.630,�k�k��,6.8,��
2020/09/23,12:20,0.660,0.937,0.602,1.153,0.835,0.381,0.669,0.630,�k�k��,7.5,��
2020/09/23,12:30,0.658,0.936,0.601,1.156,0.832,0.381,0.670,0.628,�k�k��,7.7,��
2020/09/23,12:40,0.660,0.936,0.600,1.155,0.832,0.382,0.670,0.629,�k�k��,7.2,��
2020/09/23,12:50,0.658,0.936,0.599,1.152,0.834,0.384,0.670,0.628,�k�k��,6.6,��
2020/09/23,13:00,0.660,0.936,0.599,1.154,0.834,0.383,0.671,0.629,�k�k��,6.6,��
2020/09/23,13:10,0.660,0.937,0.602,1.155,0.834,0.384,0.670,0.629,�k�k��,7.5,��
2020/09/23,13:20,0.661,0.937,0.601,1.155,0.834,0.384,0.670,0.629,�k�k��,6.7,��
2020/09/23,13:30,0.660,0.938,0.604,1.156,0.835,0.383,0.672,0.630,�k�k��,7.4,��
2020/09/23,13:40,0.660,0.938,0.603,1.155,0.835,0.384,0.670,0.631,�k�k��,7.4,��
2020/09/23,13:50,0.662,0.937,0.600,1.156,0.834,0.384,0.671,0.631,�k�k��,6.7,��
2020/09/23,14:00,0.662,0.939,0.603,1.157,0.835,0.382,0.671,0.630,�k�k��,6.6,��
2020/09/23,14:10,0.661,0.937,0.602,1.157,0.838,0.382,0.672,0.631,�k�k��,6.3,��
2020/09/23,14:20,0.660,0.939,0.601,1.160,0.835,0.384,0.671,0.630,�k�k��,6.6,��
2020/09/23,14:30,0.660,0.940,0.601,1.159,0.835,0.382,0.671,0.629,�k�k��,6.4,��
2020/09/23,14:40,0.663,0.938,0.602,1.158,0.835,0.383,0.671,0.630,�k�k��,6.6,��
2020/09/23,14:50,0.661,0.941,0.603,1.157,0.835,0.383,0.671,0.630,�k�k��,6.3,��
2020/09/23,15:00,0.660,0.938,0.604,1.156,0.837,0.384,0.671,0.631,�k��,6.8,��
2020/09/23,15:10,0.661,0.939,0.603,1.160,0.836,0.382,0.671,0.629,�k�k��,6.5,��
2020/09/23,15:20,0.662,0.940,0.602,1.157,0.838,0.383,0.670,0.630,�k��,6.6,��
2020/09/23,15:30,0.660,0.939,0.602,1.160,0.836,0.384,0.671,0.628,�k�k��,6.9,��
2020/09/23,15:40,0.662,0.939,0.602,1.159,0.835,0.383,0.672,0.629,�k�k��,6.7,��
2020/09/23,15:50,0.660,0.939,0.602,1.162,0.837,0.383,0.670,0.630,�k��,6.5,��
2020/09/23,16:00,0.661,0.941,0.601,1.156,0.836,0.383,0.671,0.629,�k��,7.0,��
2020/09/23,16:10,0.662,0.941,0.601,1.157,0.839,0.382,0.670,0.629,�k��,6.3,��
2020/09/23,16:20,0.662,0.940,0.601,1.160,0.837,0.382,0.669,0.630,�k�k��,7.1,��
2020/09/23,16:30,0.662,0.939,0.600,1.162,0.837,0.384,0.670,0.631,�k��,7.2,��
2020/09/23,16:40,0.659,0.941,0.603,1.158,0.838,0.383,0.669,0.630,�k��,7.4,��
2020/09/23,16:50,0.660,0.942,0.601,1.160,0.838,0.384,0.669,0.631,�k�k��,7.2,��
2020/09/23,17:00,0.662,0.944,0.601,1.159,0.837,0.383,0.670,0.631,�k�k��,7.3,��
2020/09/23,17:10,0.661,0.942,0.603,1.159,0.837,0.384,0.671,0.630,�k�k��,6.9,��
2020/09/23,17:20,0.661,0.943,0.604,1.162,0.839,0.383,0.672,0.631,�k��,6.6,��
2020/09/23,17:30,0.659,0.944,0.605,1.162,0.838,0.384,0.671,0.631,�k�k��,6.6,��
2020/09/23,17:40,0.661,0.942,0.603,1.161,0.838,0.385,0.672,0.632,�k�k��,6.7,��
2020/09/23,17:50,0.662,0.944,0.606,1.162,0.838,0.384,0.671,0.633,�k�k��,6.5,��
2020/09/23,18:00,0.660,0.942,0.606,1.161,0.841,0.384,0.672,0.633,�k�k��,7.2,��
2020/09/23,18:10,0.661,0.943,0.606,1.160,0.838,0.383,0.671,0.634,�k�k��,6.8,��
2020/09/23,18:20,0.660,0.943,0.605,1.162,0.841,0.384,0.672,0.633,�k�k��,6.4,��
2020/09/23,18:30,0.660,0.944,0.606,1.160,0.838,0.384,0.672,0.631,�k�k��,8.5,��
2020/09/23,18:40,0.660,0.944,0.604,1.159,0.842,0.384,0.672,0.633,�k�k��,8.6,��
2020/09/23,18:50,0.663,0.942,0.605,1.160,0.842,0.383,0.673,0.633,�k��,8.6,��
2020/09/23,19:00,0.662,0.944,0.606,1.161,0.839,0.384,0.672,0.633,�k��,8.0,��
2020/09/23,19:10,0.662,0.946,0.603,1.161,0.840,0.384,0.672,0.632,�k��,8.9,��
2020/09/23,19:20,0.663,0.945,0.605,1.163,0.841,0.383,0.672,0.632,�k�k��,8.7,��
2020/09/23,19:30,0.661,0.942,0.605,1.164,0.841,0.383,0.671,0.634,�k��,8.3,��
2020/09/23,19:40,0.664,0.944,0.605,1.161,0.840,0.385,0.673,0.632,�k�k��,8.6,��
2020/09/23,19:50,0.660,0.944,0.606,1.160,0.840,0.384,0.672,0.632,�k�k��,8.2,��
2020/09/23,20:00,0.662,0.941,0.606,1.161,0.839,0.382,0.671,0.633,�k�k��,7.1,��
2020/09/23,20:10,0.662,0.942,0.604,1.162,0.841,0.384,0.673,0.633,�k��,6.7,��
2020/09/23,20:20,0.662,0.944,0.606,1.164,0.838,0.385,0.673,0.633,�k�k��,6.8,��
2020/09/23,20:30,0.662,0.941,0.605,1.163,0.841,0.384,0.671,0.634,�k��,6.6,��
2020/09/23,20:40,0.663,0.944,0.606,1.162,0.841,0.384,0.672,0.631,�k��,7.3,��
2020/09/23,20:50,0.662,0.943,0.607,1.161,0.838,0.384,0.672,0.633,�k��,6.8,��
2020/09/23,21:00,0.662,0.944,0.608,1.162,0.840,0.384,0.675,0.633,�k��,6.8,��
2020/09/23,21:10,0.661,0.942,0.606,1.159,0.840,0.384,0.672,0.633,�k�k��,7.9,��
2020/09/23,21:20,0.663,0.942,0.604,1.164,0.841,0.384,0.672,0.633,�k��,7.8,��
2020/09/23,21:30,0.662,0.941,0.607,1.162,0.840,0.384,0.671,0.633,�k��,7.3,��
2020/09/23,21:40,0.662,0.943,0.606,1.162,0.841,0.383,0.673,0.635,�k��,6.8,��
2020/09/23,21:50,0.661,0.942,0.606,1.161,0.841,0.383,0.670,0.633,�k�k��,7.1,��
2020/09/23,22:00,0.661,0.942,0.605,1.161,0.841,0.384,0.672,0.633,�k�k��,6.9,��
2020/09/23,22:10,0.662,0.944,0.605,1.162,0.842,0.385,0.671,0.633,�k�k��,7.4,��
2020/09/23,22:20,0.663,0.943,0.607,1.162,0.840,0.384,0.671,0.635,�k��,7.0,��
2020/09/23,22:30,0.662,0.944,0.607,1.164,0.841,0.384,0.671,0.633,�k��,6.9,��
2020/09/23,22:40,0.663,0.941,0.607,1.163,0.843,0.384,0.672,0.633,�k�k��,7.0,��
2020/09/23,22:50,0.662,0.943,0.607,1.164,0.841,0.384,0.673,0.633,�k�k��,6.7,��
2020/09/23,23:00,0.663,0.944,0.604,1.162,0.842,0.385,0.673,0.633,�k�k��,7.6,��
2020/09/23,23:10,0.662,0.946,0.605,1.160,0.841,0.383,0.671,0.632,�k�k��,8.4,��
2020/09/23,23:20,0.660,0.943,0.607,1.163,0.841,0.385,0.674,0.634,�k�k��,7.0,��
2020/09/23,23:30,0.662,0.945,0.605,1.164,0.841,0.385,0.673,0.633,�k��,8.7,��
2020/09/23,23:40,0.663,0.943,0.606,1.164,0.842,0.385,0.672,0.633,�k��,8.2,��
2020/09/23,23:50,0.662,0.943,0.605,1.163,0.841,0.384,0.673,0.633,�k��,8.5,��
